Location: Bazinghen
(50.8246°N, 1.6616°E)
Time: 09:57:34
(UTC+00:00)

Cosmos 2237 Rocket - Pass Details

Date: 09 April 2020
Orbit: 833 x 851 km, 71.0° (Epoch: 06 June)

Event Time Altitude Azimuth Distance (km) Brightness Sun altitude
Rises 23:35:19 0° 331° (NNW) 3,408 6.3 -31.0°
Reaches altitude 10° 23:38:21 10° 347° (NNW) 2,473 5.5 -31.0°
Maximum altitude 23:42:41 22° 37° (NE) 1,784 4.3 -31.1°
Enters shadow 23:46:26 12° 82° (E) 2,322 4.5 -31.1°
